Weather in Samsonovka

Russia / Samara Oblast     53°53′14″N   51°30′31″E
temp.,
°C
wind,
m/s
gust,
m/s
humid.,
%
clouds,
%
prec.,
mm/h
press.,
hPa
HPBL,
m
19 january, wed
wed1901:00−3ssw71694100 0.4 1015743
04:00−3ssw71495100 0.9 1016600
07:00−4s61394100 0.6 1016475
10:00−3s71494100 0.8 1016571
13:00−3s71595100 0.5 1017680
16:00−3s71494100 1.1 1018598
19:00−4s71495100 0.5 1018566
22:00−5s51295100 0.8 1019455
20 january, thu
thu2001:00−5s51095100 0.3 1020350
04:00−6s41095100 0.5 1020330
07:00−7s3796100 0.3 1021196
10:00−8s5109596 0.6 1021295
13:00−7s51094100 0.2 1022400
16:00−8sse499177 0.3 1022281
19:00−13sse379481 0.0 1022121
22:00−16se249481 0.0 102354
21 january, fri
fri2101:00−18se229681 0.0 102317
04:00−19se219899 0.0 102310
07:00−18ese229887 0.1 102312
10:00−18ese229855 0.1 102425
13:00−11se379482 0.0 1023208
16:00−12se369646 0.1 1023121
19:00−15se369793 0.0 1023101
22:00−15se3892100 0.0 1023141
22 january, sat
sat2201:00−12se41184100 0.0 1023263
04:00−11se51293100 0.1 1023305
07:00−10se51193100 0.0 1022320
10:00−10se51292100 0.1 1023313
13:00−9se51188100 0.0 1024383
16:00−9se51190100 0.0 1025322
19:00−10se51192100 0.0 1025260
22:00−10se51193100 0.1 1027277
23 january, sun
sun2301:00−9sse41094100 0.1 1028268
04:00−11se3889100 0.1 1029183
07:00−11se41086100 0.0 1030257
10:00−11se31085100 0.0 1031246
13:00−9se4885100 0.0 1032254
16:00−8ese3792100 0.3 1033244
19:00−8ese3890100 0.0 1034206
22:00−9se2789100 0.0 1034166